Miscellaneous Local Product
Issued by NWS North Platte, NE

Home | Current Version | Previous Version | Text Only | Print | Product List | Glossary On
Versions: 1 2 3 4 5 6 7 8 9 10 11 12 13 14 15 16 17 18 19 20 21 22 23 24 25 26 27 28 29 30 31 32 33 34 35 36 37 38 39 40 41 42 43 44 45 46 47 48 49 50
516
AXUS43 KLBF 190410
MISLBF


WESTERN AND NORTH CENTRAL NEBRASKA HOURLY WEATHER ROUNDUP
NATIONAL WEATHER SERVICE NORTH PLATTE NE
1100 PM CDT WED OCT 18 2017

NOTE: "FAIR" INDICATES FEW OR NO CLOUDS BELOW 12,000 FEET WITH NO
SIGNIFICANT WEATHER AND/OR OBSTRUCTIONS TO VISIBILITY.

NOTE: STATIONS NOT REPORTING VARIABLES SUCH AS SKY/WEATHER OR
PRESSURE ARE PROVIDED BY RAWS AND APRS NETWORKS AND ARE NOT UNDER
NATIONAL WEATHER SERVICE QUALITY CONTROL.

...OBSERVATIONS IN AND NEAR THE EASTERN PANHANDLE OF NEBRASKA...

CITY           SKY/WX    TMP DP  RH WIND       PRES   REMARKS
PINE RIDGE     CLOUDY    58  30  34 S17       30.02S
GORDON         FAIR      49  32  51 CALM      30.05F
CHADRON        CLOUDY    60  27  28 S18G26    30.00F
ALLIANCE       CLOUDY    41  31  67 S8        30.08R
SIDNEY         CLEAR     46  31  55 SE10      30.12S
CRESCENT LAKE    N/A     48  33  55 S6          N/A
$$

...OBSERVATIONS IN NORTHERN NEBRASKA AND FAR SOUTHERN SOUTH DAKOTA...

CITY           SKY/WX    TMP DP  RH WIND       PRES   REMARKS
WINNER         FAIR      51  31  46 S13       30.03F
VALENTINE      CLOUDY    50  33  52 S8        30.06F
THEDFORD       CLEAR     46  34  64 SE5       30.10S
AINSWORTH      CLEAR     40  35  80 S6        30.08S
O`NEILL        CLOUDY    46  37  72 S3        30.08S
ORD            CLEAR     40  34  79 CALM      30.08S
BROKEN BOW     CLOUDY    37  33  85 CALM      30.09S
VALENTINE NWR    N/A     44  33  65 SE6         N/A
HALSEY           N/A     53  33  46 S5          N/A
BUTTE            N/A     51  34  52 SW3         N/A
CHAMBERS         N/A     42  35  76 CALM        N/A
EWING            N/A     46  34  62 CALM        N/A
$$

...OBSERVATIONS IN SOUTHWEST NEBRASKA AND FAR NORTHEAST COLORADO...

CITY           SKY/WX    TMP DP  RH WIND       PRES   REMARKS
WRAY           FAIR      50  32  50 SE5       30.12S
HOLYOKE        FAIR      46  32  57 SE8       30.11S
IMPERIAL       CLEAR     46  32  58 SE6       30.10F
OGALLALA       CLEAR     47  35  61 CALM      30.10S
NORTH PLATTE   CLOUDY    41  35  79 E3        30.10S
MCCOOK         CLEAR     49  35  58 E5        30.10S
LEXINGTON      CLEAR     43  37  80 W3        30.10F
STAPLETON        N/A     44  34  69 CALM        N/A
GOTHENBURG       N/A     49  36  60 CALM        N/A
CALLAWAY         N/A     39  36  88 CALM        N/A
$$

...OBSERVATIONS IN CENTRAL LINCOLN COUNTY AREA...

CITY           SKY/WX    TMP DP  RH WIND       PRES   REMARKS
N.P. AIRPORT   CLOUDY    41  35  79 E3        30.10S
N.P. DOWNTOWN    N/A     49  38  67 CALM        N/A
N.P. SOUTHEAST   N/A     47  37  67 CALM        N/A
N.P. HILLCREST   N/A     51  36  56 E6          N/A
$$

...SOME OBSERVATIONS FROM AROUND THE REGION...

CITY           SKY/WX    TMP DP  RH WIND       PRES   REMARKS
DENVER         CLEAR     55  20  25 S16       30.15R
LIMON          CLOUDY    41  25  53 CALM      30.19R
ASPEN          CLOUDY    42  14  32 S8        30.30S
LARAMIE        CLOUDY    37  14  38 SW5       30.21F WCI  33
CASPER         CLOUDY    53  14  21 SW13      30.05F
CHEYENNE       CLOUDY    46  22  38 W7        30.18S
SCOTTSBLUFF    CLOUDY    47  31  53 E9        30.08S
GRAND ISLAND   CLEAR     48  40  73 N3        30.08S
OMAHA          CLEAR     52  46  80 NW7       30.04R
SIOUX FALLS    CLOUDY    44  36  73 NW3       30.06R
PIERRE         CLOUDY    46  30  53 SE6       30.00F
RAPID CITY     CLOUDY    47  29  49 SE7       29.97F
BISMARCK       CLOUDY    41  25  53 CALM      29.94F
KANSAS CITY    CLEAR     55  50  83 S9        30.04S
HILL CITY      CLEAR     56  38  50 N9        30.09S
WICHITA        CLOUDY    58  50  75 S9        30.04S
DODGE CITY     CLEAR     57  46  66 S9        30.06R
OKLAHOMA CITY  CLOUDY    57  47  69 S8        30.08R
DALLAS         MOCLDY    66  46  48 SE10      30.09S
AMARILLO       CLEAR     58  48  69 SE10      30.08S
$$




USA.gov is the U.S. government's official web portal to all federal, state and local government web resources and services.